Location: Mactaquac Provincial Park
(45.9573°N, 66.8897°W)
Time: 05:34:34
(UTC-03:00)

Cosmos 1867 - Visible Passes

Search period start: 05 May 2016 00:00
Search period end: 15 May 2016 00:00
Orbit: 773 x 803 km, 65.0° (Epoch: 04 May)

Date Brightness Start Highest point End Pass type
(mag) Time Alt. Az. Time Alt. Az. Time Alt. Az.
08 May 6.2 05:10:54 10° SE 05:13:28 13° ESE 05:16:02 10° ENE visible
11 May 5.0 05:16:35 10° S 05:21:30 35° ESE 05:26:27 10° NE visible
12 May 5.3 04:45:32 10° SSE 04:50:01 27° ESE 04:54:31 10° ENE visible
13 May 5.7 04:14:42 10° SSE 04:18:33 20° ESE 04:22:25 10° ENE visible
14 May 5.9 03:44:16 10° SE 03:47:08 15° ESE 03:50:00 10° ENE visible
